Location: Brno
(49.2000°N, 16.6330°E)
Time: 03:40:43
(UTC+02:00)

Meteor 1-4 Rocket - Visible Passes

Search period start: 06 May 2016 00:00
Search period end: 16 May 2016 00:00
Orbit: 455 x 515 km, 81.2° (Epoch: 05 May)

Date Brightness Start Highest point End Pass type
(mag) Time Alt. Az. Time Alt. Az. Time Alt. Az.
06 May 6.2 04:41:44 10° NE 04:43:15 12° ENE 04:44:47 10° E visible
11 May 5.7 04:13:24 10° NNE 04:15:54 17° ENE 04:18:25 10° ESE visible
12 May 5.9 03:49:35 10° NE 03:51:11 12° ENE 03:52:47 10° E visible
15 May 4.3 04:09:40 10° N 04:13:04 36° ENE 04:16:30 10° SE visible
